Location: Unspecified
(0.0000°N, 0.0000°E)
Time: 20:42:23
(UTC+00:00)

deb Kosmos-1275 - Pass Details

Date: 09 March 2026
Orbit: 936 x 1103 km, 82.9° (Epoch: 11 April)

Event Time Altitude Azimuth Distance (km) Brightness Sun altitude
Rises 20:00:58 0° 319° (NW) 3,904 ? -27.5°
Reaches altitude 10° 20:05:17 10° 294° (WNW) 2,936 ? -28.6°
Maximum altitude 20:08:13 13° 268° (W) 2,693 ? -29.4°
Drops below altitude 10° 20:11:08 10° 241° (WSW) 2,906 ? -30.1°
Sets 20:15:25 0° 215° (SW) 3,831 ? -31.1°
